Location: B�rgermoos
(47.6500°N, 9.0667°E)
Time: 10:16:31
(UTC+00:00)

Vanguard 3 - Pass Details

Date: 08 August 2021
Orbit: 510 x 3260 km, 33.4° (Epoch: 23 September)

Event Time Altitude Azimuth Distance (km) Brightness Sun altitude
Rises 20:20:34 0° 272° (W) 6,075 12.4 -13.8°
Reaches altitude 10° 20:24:45 10° 263° (W) 5,392 11.9 -14.3°
Maximum altitude 20:38:59 34° 208° (SSW) 4,420 10.7 -15.9°
Enters shadow 20:51:46 17° 160° (SSE) 5,574 10.8 -17.4°
